Погода в Балхаше

Хотите узнать прогноз погоды в Балхаше? Тогда Вам сюда: Погода в Балхаше

Поиск расширенной информации на нашем сайте:

Полезная информация:

Новости сайта



14.11.2019
Обновлён Долгосрочный прогноз погоды по России и другим странам хСССР на ноябрь-декабрь 2019 года.
Опубликованы прогностические карты: Предварительный прогноз на декабрь 2019 года, Предварительный прогноз на январь 2020 года, Предварительная схема синоптических процессов на декабрь 2019 г..

11.11.2019
Обновлены Долгосрочный прогноз погоды по России и другим странам хСССР на ноябрь-декабрь 2019 года и Предварительный прогноз на зиму 2019/2020 годов

04.11.2019
Опубликован Долгосрочный прогноз погоды по России и другим странам хСССР на ноябрь 2019 года
Сравнение прогнозируемой аномалии приземной температуры воздуха на ноябрь 2019 года по разным моделям
Предварительный прогноз на зиму 2019/2020 года




Погода в Балхаше - сегодня

Время (UTC), дата Ветер
(°,м/с) 
Видим.   Явления Облачность Т
(°С)
Тd
(°С)
f(%) Тe
(°С)
Pmin
(гПа)
dP
(гПа)
Po
(мм)
O2
(г/м3)
Тmin Tmax R s Состояние
почвы
00 20.11.19 050 (СВ) 10 км    9/0 средняя, верхняя 
[Ac trans|Ci sp]
-12.3 -17.4 66 -19  1023.7  2.4  734  311           
03 20.11.19 050 (СВ) 20000 м    9/0 средняя, верхняя 
[Ac trans|Ci sp]
-15.1 -20.4 64 -22  1027.3  736  315           
06 20.11.19 040 (СВ) 20000 м    1/0 средняя 
[Ac trans]
-12.6 -20.4 52 -18  1027.9  737  313  -15.1         
09 20.11.19 060 (СВ) 20000 м    6/3 1000 м средняя 
[Sc|Ac trans]
-9.6 -20.2 42 -15  1027  -0.4  736  309           
12 20.11.19 040 (СВ) 10 км    5/3 1000 м средняя 
[Sc|Ac trans]
-10.8 -20.7 44 -16  1028.7  1.4  737  311           
15 20.11.19 050 (СВ) 10 км    3/0 средняя 
[Ac trans]
-14.9 -22.4 53 -22  1030.9  1.4  738  316    -9.3       
18 20.11.19 040 (СВ) 10 км    ясно 
-17.8 -23.5 61 -25  1032.2  0.8  739  320    -9.3       
21 20.11.19 050 (СВ) 10 км    ясно 
-20 -25.1 64 -29  1033.7  740  323           
00 21.11.19 050 (СВ) 10 км    ясно 
-20.9 -25.8 65 -29  1035.7  1.7  741  325           
03 21.11.19 050 (СВ) 20000 м    1/0 верхняя 
[Ci fib]
-20.6 -24.8 69 -29  1037.7  743  325           
06 21.11.19 050 (СВ) 20000 м    1/0 верхняя 
[Ci fib]
-15.3 -22.3 55 -21  1038.1  1.3  743  319  -21         
09 21.11.19 040 (СВ) 20000 м    ясно 
-10.6 -20.3 45 -15  1037.4  0.2  744  313           
12 21.11.19 040 (СВ) 10 км    ясно 
-12.1 -20.2 51 -15  1038.2  0.5  744  315           
15 21.11.19 040 (СВ) 10 км    ясно 
-14.8 -20.5 62 -19  1039.5  0.8  745  319    -10.2       
18 21.11.19 060 (СВ) 10 км    ясно 
-17.3 -21 73 -22  1039.9  -0.1  745  322    -10.2       
21 21.11.19 050 (СВ) 10 км    ясно 
-18.2 -21.5 75 -24  1040.3  0.2  745  323           
00 22.11.19 050 (СВ) 10 км    ясно 
-18.8 -21.8 77 -25  1040.6  0.2  745  324           
03 22.11.19 040 (СВ) 20000 м    1/0 верхняя 
[Ci fib]
-18.6 -21.9 75 -25  1041.3  0.7  745  324           
06 22.11.19 080 (В) 20000 м    1/0 верхняя 
[Ci fib]
-12.4 -19 58 -14  1040.7  0.5  746  316  -19         
09 22.11.19 200 (Ю) 20000 м    1/0 верхняя 
[Ci fib]
-7.9 -17.9 44 -8  1038.8  -1  745  311           
12 22.11.19 тихо ()   10 км    1/0 верхняя 
[Ci fib]
-9 -17 52 -9  1039.7  0.7  746  312           
15 22.11.19 тихо ()   10 км    ясно 
-12.1 -15.3 77 -12  1041.3  746  316    -6.9       
18 22.11.19 050 (СВ) 10 км    ясно 
-14.1 -18.1 72 -18  1042  0.3  746  319    -6.9       
21 22.11.19 060 (СВ) 10 км    ясно 
-16.3 -20 73 -21  1042.5  0.1  747  321           
00 23.11.19 060 (СВ) 10 км  слаб. снег  10/0 средняя 
[As op]
-14.9 -18 77 -20  1042.1  -0.2  746  320           
Время (UTC), дата Ветер
(°,м/с) 
Видим.   Явления Облачность Т
(°С)
Тd
(°С)
f(%) Тe
(°С)
Pmin
(гПа)
dP
(гПа)
Po
(мм)
O2
(г/м3)
Тmin Tmax R s Состояние
почвы

Для получения пояснительной информации подведите курсор к названию столбца.

ПОГОДА в Балхаше - архив

Всё, что Вы хотите узнать о погоде в Балхаше - удобно и подробно!

Выберите нужную дату (начиная с 1 января 2019* года) и нажмите кнопку "Найти".
Будут отображены архивные сводки погоды по пункту Балхаш, начиная с указанной даты.


Отображать данные в формате CSV (для использования в таблицах Excel)


Внимание! Наш архив погоды предназначен исключительно для личного некоммерческого использования в познавательных целях. Если Вам необходимы официальные справки о состоянии погоды (для производственных, юридических, коммерческих и т.п. целей), обращайтесь в органы Росгидромета.

*Примечание: данная дата относится к архиву по метеостанциям СССР (Россия, СНГ, Балтия).
Архив по метеостанциям Зарубежной Европы и Азии (кроме Китая) хранится 10 дней, по другим регионам земного шара (Китай, Африка, Америка, Австралия, Океания) - 1 день.

Балхаш - район местоположения метеостанции


Название, широта, долгота, высота метеостанции:
Балхаш 46.8°ш. 75.1°д. 350 м над ур. моря [Казахстан]

Дополнительная информация

В oтличие oт бoльшинства пoгoдных сайтoв мы публикуем пoдрoбную метеoинфoрмацию в детальнoм прoфессиoнальнoм фoрмате.

Характеристики температуры и влажнoсти вoздуха измеряются на высoте 2 м в тени вдали oт зданий и деревьев.
Скoрoсть ветра измеряется на высoте 10 м (на урoвне рoста челoвека скoрoсть ветра ниже в 1.5-2 раза). Если метеoстанция нахoдится в гoрoде или в лесу, тo скoрoсть ветра занижена на 2-4 м/с пo сравнению с oткрытым местoм. Скoрoсть ветра над акватoриями крупных рек и oзёр, а также на вершинах хoлмoв на 2-5 м/с выше, чем в oбычных услoвиях.
Атмoсфернoе давление в разных тoчках местнoсти мoжет значительнo oтличаться oт давления на метеoстанции, в зависимoсти oт услoвий рельефа (при пoдъёме на 10 м давление пoнижается примернo на 1 мм рт.ст.).